DLH576 EDDF-FACT

Flight info

Callsign DLH576
Flight time N/A
Altitude 33000
Route ANEKI2L/18 ANEKI Y163 NATOR DCT TRA DCT RIPUS DCT GERSA DCT SOSON DCT ODINA/N0486F350 DCT PIDAD DCT TALEP DCT VAREK DCT ERPIN DCT ETOIL DCT CIRTA UA605 CSO UR978 AS UA604 ILBIP/N0495F370 UA604 DLA UG861 MESIN UY339 LIKAD/N0490F380 UY242 VMO/N0487F390 UN190 XALVI/N0484F380 UN188 DUSLA UQ62 ASPIK ASPIK1C
Aircraft B789/H-SADFGHIJ1J2J3J4J5LOP1P2RWXYZ/LB1D1

Departure

Time 2026-05-03 20:19
Airport Frankfurt Main Airport (EDDF)

Arrival

Time N/A
Airport Cape Town International Airport (FACT)
Time Latitude Longitude Altitude Speed Heading
2026-05-03 20:15 50.03785 8.54162 356 ft 20 kts 249°
2026-05-03 20:15 50.03739 8.53968 357 ft 18 kts 249°
2026-05-03 20:15 50.03695 8.53782 350 ft 19 kts 249°
2026-05-03 20:15 50.03648 8.53593 356 ft 18 kts 246°
2026-05-03 20:16 50.03605 8.53419 354 ft 17 kts 250°
2026-05-03 20:16 50.03572 8.53282 355 ft 12 kts 249°
2026-05-03 20:16 50.03543 8.53160 344 ft 12 kts 250°
2026-05-03 20:16 50.03510 8.53024 351 ft 15 kts 250°
2026-05-03 20:17 50.03468 8.52857 350 ft 18 kts 246°
2026-05-03 20:17 50.03419 8.52673 338 ft 18 kts 245°
2026-05-03 20:17 50.03348 8.52595 338 ft 10 kts 186°
2026-05-03 20:17 50.03327 8.52594 341 ft 0 kts 181°
2026-05-03 20:18 50.03301 8.52594 339 ft 9 kts 180°
2026-05-03 20:18 50.03120 8.52595 339 ft 50 kts 179°
2026-05-03 20:18 50.02550 8.52601 336 ft 113 kts 180°
2026-05-03 20:18 50.01569 8.52610 336 ft 167 kts 180°
2026-05-03 20:19 50.00342 8.52632 731 ft 183 kts 182°
2026-05-03 20:19 49.98964 8.52828 917 ft 213 kts 175°
2026-05-03 20:19 49.97393 8.52883 1071 ft 237 kts 181°
2026-05-03 20:19 49.95670 8.52914 1382 ft 254 kts 180°
2026-05-03 20:20 49.93956 8.53046 2519 ft 234 kts 181°
2026-05-03 20:20 49.92392 8.53172 3608 ft 220 kts 183°
2026-05-03 20:20 49.90832 8.53275 3980 ft 230 kts 183°
2026-05-03 20:20 49.89183 8.53378 4160 ft 249 kts 183°
2026-05-03 20:21 49.87437 8.53504 4865 ft 249 kts 182°
2026-05-03 20:21 49.85727 8.53630 5653 ft 248 kts 182°
2026-05-03 20:21 49.84000 8.53747 6367 ft 249 kts 182°
2026-05-03 20:21 49.82270 8.53866 7039 ft 249 kts 181°
2026-05-03 20:22 49.80525 8.53987 7646 ft 252 kts 182°
2026-05-03 20:22 49.78771 8.54105 8284 ft 254 kts 182°
2026-05-03 20:22 49.77018 8.53991 8867 ft 253 kts 190°
2026-05-03 20:22 49.75246 8.53744 9474 ft 256 kts 188°
2026-05-03 20:23 49.73467 8.53528 10043 ft 258 kts 188°
2026-05-03 20:23 49.71666 8.53289 10525 ft 262 kts 188°
2026-05-03 20:23 49.69831 8.53042 11031 ft 266 kts 188°
2026-05-03 20:23 49.67971 8.52795 11515 ft 271 kts 188°
2026-05-03 20:24 49.66075 8.52548 11998 ft 275 kts 188°
2026-05-03 20:24 49.64165 8.52296 12542 ft 276 kts 188°
2026-05-03 20:24 49.62234 8.52041 13004 ft 282 kts 188°
2026-05-03 20:24 49.60209 8.51769 13037 ft 302 kts 188°
2026-05-03 20:25 49.58046 8.51481 13043 ft 322 kts 188°
2026-05-03 20:25 49.55775 8.51185 13043 ft 333 kts 188°
2026-05-03 20:25 49.53451 8.50887 13224 ft 336 kts 188°
2026-05-03 20:25 49.51123 8.50582 13774 ft 338 kts 188°
2026-05-03 20:26 49.48768 8.50269 14215 ft 341 kts 188°
2026-05-03 20:26 49.46422 8.49960 14666 ft 344 kts 187°
2026-05-03 20:26 49.43998 8.49645 15114 ft 347 kts 188°
2026-05-03 20:26 49.41616 8.49333 15568 ft 348 kts 187°
2026-05-03 20:27 49.39188 8.49015 15990 ft 352 kts 187°
2026-05-03 20:27 49.36739 8.48696 16414 ft 354 kts 187°
2026-05-03 20:27 49.34272 8.48376 16813 ft 357 kts 187°
2026-05-03 20:27 49.31785 8.48050 17225 ft 360 kts 187°
2026-05-03 20:28 49.29273 8.47723 17641 ft 363 kts 187°
2026-05-03 20:28 49.26743 8.47397 18039 ft 366 kts 187°
2026-05-03 20:28 49.24202 8.47065 18430 ft 369 kts 187°
2026-05-03 20:28 49.21634 8.46729 18820 ft 371 kts 187°
2026-05-03 20:29 49.19054 8.46399 19099 ft 374 kts 187°
2026-05-03 20:29 49.17301 8.46169 19364 ft 375 kts 187°
2026-05-03 20:29 49.14729 8.45832 19713 ft 376 kts 187°
2026-05-03 20:29 49.12114 8.45496 20088 ft 377 kts 187°
2026-05-03 20:30 49.09460 8.45152 20451 ft 379 kts 187°
2026-05-03 20:30 49.06872 8.44811 20793 ft 379 kts 188°
2026-05-03 20:30 49.04296 8.43985 21064 ft 379 kts 196°
2026-05-03 20:30 49.01716 8.43076 21404 ft 380 kts 194°
2026-05-03 20:31 48.99115 8.42234 21683 ft 384 kts 194°
2026-05-03 20:31 48.96515 8.41345 22067 ft 383 kts 195°
2026-05-03 20:31 48.93909 8.40410 22413 ft 386 kts 195°
2026-05-03 20:31 48.91289 8.39490 22756 ft 387 kts 194°
2026-05-03 20:32 48.88668 8.38596 23046 ft 386 kts 194°
2026-05-03 20:32 48.86029 8.37691 23349 ft 389 kts 195°
2026-05-03 20:32 48.83389 8.36765 23634 ft 390 kts 195°
2026-05-03 20:32 48.80700 8.35830 23867 ft 391 kts 194°
2026-05-03 20:33 48.78080 8.34928 24086 ft 392 kts 194°
2026-05-03 20:33 48.75421 8.33968 24305 ft 393 kts 196°
2026-05-03 20:33 48.72769 8.32965 24534 ft 393 kts 195°
2026-05-03 20:33 48.70110 8.31986 24742 ft 395 kts 195°
2026-05-03 20:34 48.67424 8.31020 24921 ft 397 kts 195°
2026-05-03 20:34 48.64737 8.30049 25158 ft 397 kts 195°
2026-05-03 20:34 48.62054 8.29069 25346 ft 398 kts 195°
2026-05-03 20:34 48.59353 8.28083 25558 ft 399 kts 195°
2026-05-03 20:35 48.56648 8.27101 25767 ft 401 kts 195°
2026-05-03 20:35 48.53936 8.26116 25993 ft 402 kts 195°
2026-05-03 20:35 48.51215 8.25156 26201 ft 403 kts 192°
2026-05-03 20:35 48.48416 8.24789 26286 ft 407 kts 181°
2026-05-03 20:36 48.45585 8.25213 26515 ft 410 kts 174°
2026-05-03 20:36 48.42768 8.25891 26698 ft 411 kts 173°
2026-05-03 20:36 48.39950 8.26584 26844 ft 411 kts 174°
2026-05-03 20:36 48.37111 8.27268 26956 ft 412 kts 174°
2026-05-03 20:37 48.34270 8.27954 27090 ft 414 kts 174°
2026-05-03 20:37 48.31417 8.28651 27278 ft 416 kts 173°
2026-05-03 20:37 48.28562 8.29343 27496 ft 416 kts 173°
2026-05-03 20:37 48.25697 8.30030 27687 ft 417 kts 173°
2026-05-03 20:38 48.22824 8.30723 27880 ft 419 kts 173°
2026-05-03 20:38 48.19942 8.31419 28075 ft 420 kts 173°
2026-05-03 20:38 48.17057 8.32113 28290 ft 421 kts 173°
2026-05-03 20:38 48.14157 8.32813 28503 ft 422 kts 173°
2026-05-03 20:39 48.11251 8.33520 28642 ft 425 kts 173°
2026-05-03 20:39 48.08325 8.34233 28869 ft 426 kts 173°
2026-05-03 20:39 48.05398 8.34941 29058 ft 427 kts 173°
2026-05-03 20:39 48.02459 8.35649 29272 ft 428 kts 173°
2026-05-03 20:40 47.99513 8.36360 29466 ft 429 kts 173°
2026-05-03 20:40 47.96559 8.37075 29674 ft 431 kts 173°
2026-05-03 20:40 47.93600 8.37789 29884 ft 432 kts 173°
2026-05-03 20:40 47.90632 8.38503 30046 ft 434 kts 173°
2026-05-03 20:41 47.87633 8.39223 30147 ft 437 kts 173°
2026-05-03 20:41 47.84630 8.39945 30336 ft 438 kts 173°
2026-05-03 20:41 47.81619 8.40667 30500 ft 439 kts 173°
2026-05-03 20:41 47.78635 8.41383 30670 ft 440 kts 174°
2026-05-03 20:42 47.75568 8.42116 30834 ft 441 kts 174°
2026-05-03 20:42 47.72582 8.42828 30990 ft 443 kts 173°
2026-05-03 20:42 47.69525 8.43558 31145 ft 443 kts 174°
2026-05-03 20:43 47.63476 8.44493 31386 ft 446 kts 176°
2026-05-03 20:43 47.60373 8.44967 31545 ft 448 kts 176°
2026-05-03 20:43 47.57276 8.45428 31746 ft 449 kts 177°
2026-05-03 20:43 47.54157 8.45881 31898 ft 450 kts 177°
2026-05-03 20:44 47.51042 8.46339 32061 ft 450 kts 177°
2026-05-03 20:44 47.44758 8.47263 32253 ft 455 kts 177°
2026-05-03 20:44 47.41682 8.47712 32429 ft 456 kts 177°
2026-05-03 20:45 47.38516 8.48176 32597 ft 458 kts 177°
2026-05-03 20:45 47.35344 8.48641 32766 ft 459 kts 177°
2026-05-03 20:45 47.32167 8.49104 32930 ft 460 kts 177°
2026-05-03 20:45 47.28984 8.49568 33086 ft 461 kts 177°
2026-05-03 20:46 47.25767 8.50038 33073 ft 465 kts 178°
2026-05-03 20:46 47.19331 8.50977 33064 ft 463 kts 178°
2026-05-03 20:47 47.12923 8.51908 33058 ft 462 kts 178°
2026-05-03 20:47 47.06509 8.52841 33042 ft 463 kts 178°
2026-05-03 20:48 47.00161 8.53756 33060 ft 465 kts 178°
2026-05-03 20:48 46.93739 8.54681 33076 ft 464 kts 178°
2026-05-03 20:49 46.87324 8.55606 33080 ft 462 kts 178°
2026-05-03 20:49 46.80919 8.56522 33097 ft 465 kts 178°
2026-05-03 20:50 46.74482 8.57448 33088 ft 465 kts 178°
2026-05-03 20:50 46.68039 8.58365 33084 ft 464 kts 178°
2026-05-03 20:51 46.61607 8.59277 33108 ft 466 kts 178°
2026-05-03 20:51 46.55153 8.60200 33114 ft 466 kts 178°
2026-05-03 20:52 46.48691 8.61115 33126 ft 468 kts 178°
2026-05-03 20:52 46.42315 8.62018 33129 ft 466 kts 178°
2026-05-03 20:53 46.35853 8.62927 33117 ft 466 kts 178°
2026-05-03 20:53 46.29409 8.63837 33118 ft 466 kts 178°
2026-05-03 20:54 46.22961 8.64740 33101 ft 465 kts 178°
2026-05-03 20:54 46.13269 8.66097 33106 ft 467 kts 178°
2026-05-03 20:55 46.06806 8.66556 33107 ft 465 kts 182°
2026-05-03 20:55 46.00345 8.66697 33119 ft 463 kts 182°
2026-05-03 20:56 45.93888 8.66820 33124 ft 464 kts 182°
2026-05-03 20:56 45.87424 8.66950 33125 ft 465 kts 182°
2026-05-03 20:57 45.80962 8.67077 33114 ft 464 kts 183°
2026-05-03 20:57 45.74512 8.67204 33110 ft 465 kts 182°
2026-05-03 20:58 45.68030 8.67333 33103 ft 466 kts 183°
2026-05-03 20:58 45.61599 8.67458 33096 ft 464 kts 183°
2026-05-03 20:59 45.55109 8.67586 33096 ft 463 kts 183°
2026-05-03 20:59 45.48709 8.67711 33095 ft 464 kts 183°
2026-05-03 21:00 45.44382 8.67794 33085 ft 465 kts 183°
2026-05-03 21:00 45.35794 8.67963 33075 ft 463 kts 183°
2026-05-03 21:01 45.29426 8.68088 33089 ft 465 kts 183°
2026-05-03 21:01 45.22978 8.68202 33073 ft 461 kts 184°
2026-05-03 21:02 45.16578 8.68343 33104 ft 459 kts 183°
2026-05-03 21:02 45.10190 8.68454 33111 ft 460 kts 183°
2026-05-03 21:03 45.03770 8.68581 33107 ft 461 kts 183°
2026-05-03 21:03 44.97360 8.68705 33118 ft 460 kts 183°
2026-05-03 21:04 44.90967 8.68826 33122 ft 460 kts 183°
2026-05-03 21:04 44.84565 8.68950 33110 ft 461 kts 183°
2026-05-03 21:05 44.78126 8.69069 33121 ft 460 kts 183°
2026-05-03 21:05 44.71724 8.69192 33136 ft 460 kts 182°
2026-05-03 21:06 44.65341 8.69316 33136 ft 464 kts 183°
2026-05-03 21:06 44.58887 8.69436 33142 ft 464 kts 183°
2026-05-03 21:07 44.52435 8.69557 33148 ft 463 kts 183°
2026-05-03 21:07 44.45989 8.69680 33155 ft 464 kts 183°
2026-05-03 21:08 44.39534 8.69801 33161 ft 463 kts 183°
2026-05-03 21:08 44.33099 8.69933 33157 ft 463 kts 183°
2026-05-03 21:09 44.26666 8.70034 33141 ft 462 kts 183°
2026-05-03 21:09 44.20228 8.70166 33141 ft 463 kts 183°
2026-05-03 21:10 44.13777 8.70281 33145 ft 464 kts 183°
2026-05-03 21:10 44.07318 8.70403 33141 ft 464 kts 183°
2026-05-03 21:11 44.00887 8.70523 33139 ft 466 kts 183°
2026-05-03 21:11 43.94446 8.70641 33137 ft 465 kts 183°
2026-05-03 21:12 43.88022 8.70761 33128 ft 464 kts 183°
2026-05-03 21:12 43.81571 8.70879 33129 ft 463 kts 183°
2026-05-03 21:13 43.75135 8.70998 33126 ft 462 kts 183°
2026-05-03 21:13 43.68688 8.71116 33122 ft 464 kts 183°
2026-05-03 21:14 43.63340 8.71214 33126 ft 462 kts 183°
2026-05-03 21:14 43.56921 8.71233 33121 ft 461 kts 184°
2026-05-03 21:15 43.50508 8.71214 33122 ft 461 kts 184°
2026-05-03 21:15 43.44279 8.69795 33156 ft 452 kts 203°
2026-05-03 21:16 43.38566 8.66260 33124 ft 450 kts 207°
2026-05-03 21:16 43.32906 8.62586 33130 ft 450 kts 208°
2026-05-03 21:17 43.27238 8.58925 33123 ft 451 kts 207°
2026-05-03 21:17 43.21547 8.55256 33140 ft 452 kts 207°
2026-05-03 21:18 43.15851 8.51591 33123 ft 453 kts 207°
2026-05-03 21:18 43.10212 8.47968 33116 ft 452 kts 207°
2026-05-03 21:19 43.04521 8.44321 33112 ft 451 kts 207°
2026-05-03 21:19 42.98837 8.40685 33115 ft 451 kts 207°
2026-05-03 21:20 42.93152 8.37058 33109 ft 451 kts 207°
2026-05-03 21:20 42.87460 8.33432 33106 ft 453 kts 207°
2026-05-03 21:21 42.81770 8.29815 33101 ft 451 kts 207°
2026-05-03 21:21 42.76091 8.26213 33101 ft 451 kts 207°
2026-05-03 21:22 42.70399 8.22609 33113 ft 452 kts 207°
2026-05-03 21:22 42.64736 8.19031 33119 ft 452 kts 206°
2026-05-03 21:23 42.59049 8.15446 33121 ft 452 kts 206°
2026-05-03 21:23 42.53379 8.11879 33119 ft 452 kts 206°
2026-05-03 21:24 42.47668 8.08292 33117 ft 452 kts 206°
2026-05-03 21:24 42.41958 8.04713 33116 ft 452 kts 206°
2026-05-03 21:25 42.36248 8.01142 33118 ft 452 kts 206°
2026-05-03 21:25 42.30531 7.97622 33112 ft 451 kts 203°
2026-05-03 21:26 42.24708 7.94421 33119 ft 453 kts 204°
2026-05-03 21:26 42.18879 7.91203 33121 ft 453 kts 204°
2026-05-03 21:27 42.13037 7.88001 33105 ft 453 kts 204°
2026-05-03 21:27 42.07212 7.84802 33104 ft 451 kts 204°
2026-05-03 21:28 42.01411 7.81631 33105 ft 450 kts 204°
2026-05-03 21:28 41.95601 7.78456 33109 ft 452 kts 204°
2026-05-03 21:29 41.89759 7.75273 33103 ft 453 kts 204°
2026-05-03 21:29 41.83932 7.72103 33103 ft 451 kts 204°
2026-05-03 21:30 41.78113 7.68944 33099 ft 451 kts 203°
2026-05-03 21:30 41.72296 7.65791 33090 ft 451 kts 203°
2026-05-03 21:31 41.66463 7.62638 33108 ft 453 kts 203°
2026-05-03 21:31 41.60654 7.59502 33113 ft 454 kts 203°
2026-05-03 21:32 41.54636 7.57061 33117 ft 453 kts 192°
2026-05-03 21:32 41.48425 7.55630 33101 ft 453 kts 192°
2026-05-03 21:33 41.42272 7.54217 33103 ft 455 kts 192°
2026-05-03 21:33 41.36031 7.52781 33107 ft 456 kts 192°
2026-05-03 21:34 41.29792 7.51354 33096 ft 454 kts 192°
2026-05-03 21:34 41.23579 7.49931 33093 ft 452 kts 192°
2026-05-03 21:35 41.17382 7.48517 33096 ft 453 kts 192°
2026-05-03 21:35 41.11161 7.47099 33100 ft 455 kts 192°
2026-05-03 21:36 41.04933 7.45683 33105 ft 453 kts 192°
2026-05-03 21:36 40.98725 7.44274 33100 ft 452 kts 192°
2026-05-03 21:37 40.92524 7.42868 33102 ft 452 kts 192°
2026-05-03 21:37 40.86324 7.41467 33106 ft 452 kts 192°
2026-05-03 21:38 40.80119 7.40064 33107 ft 453 kts 192°
2026-05-03 21:38 40.73908 7.38668 33109 ft 453 kts 192°
2026-05-03 21:39 40.67684 7.37266 33117 ft 454 kts 192°
2026-05-03 21:39 40.64576 7.36568 33283 ft 454 kts 192°
2026-05-03 21:39 40.61462 7.35871 33475 ft 454 kts 192°
2026-05-03 21:40 40.58340 7.35171 33644 ft 455 kts 192°
2026-05-03 21:40 40.55220 7.34473 33813 ft 456 kts 192°
2026-05-03 21:40 40.52089 7.33772 33979 ft 457 kts 192°
2026-05-03 21:40 40.48952 7.33071 34128 ft 458 kts 192°
2026-05-03 21:41 40.45809 7.32369 34256 ft 459 kts 192°
2026-05-03 21:41 40.42663 7.31668 34373 ft 460 kts 192°
2026-05-03 21:41 40.39503 7.30963 34485 ft 461 kts 192°
2026-05-03 21:41 40.36333 7.30257 34608 ft 462 kts 192°
2026-05-03 21:42 40.33164 7.29553 34762 ft 462 kts 192°
2026-05-03 21:42 40.29994 7.28848 34887 ft 462 kts 192°
2026-05-03 21:42 40.26824 7.28145 35030 ft 462 kts 192°
2026-05-03 21:42 40.23646 7.27439 35085 ft 464 kts 192°
2026-05-03 21:43 40.17249 7.26023 35098 ft 466 kts 192°
2026-05-03 21:43 40.10872 7.24613 35096 ft 464 kts 192°
2026-05-03 21:44 40.04548 7.23218 35095 ft 463 kts 192°
2026-05-03 21:44 39.98188 7.21820 35098 ft 466 kts 192°
2026-05-03 21:45 39.91785 7.20410 35101 ft 467 kts 192°
2026-05-03 21:45 39.85376 7.19004 35102 ft 467 kts 192°
2026-05-03 21:46 39.78965 7.17601 35092 ft 468 kts 193°
2026-05-03 21:46 39.72505 7.16212 35100 ft 472 kts 189°
2026-05-03 21:47 39.66012 7.15055 35094 ft 470 kts 191°
2026-05-03 21:47 39.59519 7.13881 35088 ft 472 kts 191°
2026-05-03 21:48 39.53003 7.12729 35084 ft 473 kts 192°
2026-05-03 21:48 39.46463 7.11560 35096 ft 475 kts 191°
2026-05-03 21:49 39.39900 7.10385 35100 ft 476 kts 191°
2026-05-03 21:49 39.33392 7.09234 35092 ft 473 kts 192°
2026-05-03 21:50 39.26823 7.08066 35090 ft 479 kts 193°
2026-05-03 21:50 39.20212 7.06899 35096 ft 480 kts 192°
2026-05-03 21:51 39.13596 7.05729 35090 ft 479 kts 193°
2026-05-03 21:51 39.06959 7.04555 35089 ft 484 kts 193°
2026-05-03 21:52 39.00289 7.03386 35089 ft 483 kts 193°
2026-05-03 21:52 38.93620 7.02287 35092 ft 484 kts 192°
2026-05-03 21:53 38.86981 7.01223 35084 ft 486 kts 193°
2026-05-03 21:53 38.80248 7.00118 35086 ft 489 kts 193°
2026-05-03 21:54 38.73502 6.99036 35083 ft 487 kts 193°
2026-05-03 21:54 38.66837 6.97952 35076 ft 486 kts 193°
2026-05-03 21:55 38.60100 6.96869 35082 ft 490 kts 193°
2026-05-03 21:55 38.53333 6.95779 35085 ft 490 kts 193°
2026-05-03 21:56 38.46619 6.94701 35089 ft 490 kts 193°
2026-05-03 21:56 38.39885 6.93620 35084 ft 491 kts 193°
2026-05-03 21:57 38.33091 6.92533 35087 ft 492 kts 193°
2026-05-03 21:57 38.26305 6.91450 35086 ft 490 kts 193°
2026-05-03 21:58 38.19544 6.90371 35082 ft 489 kts 193°
2026-05-03 21:58 38.12792 6.89295 35079 ft 489 kts 193°
2026-05-03 21:59 38.06034 6.88223 35076 ft 490 kts 193°
2026-05-03 21:59 37.99270 6.87149 35078 ft 490 kts 193°
2026-05-03 22:00 37.92491 6.86076 35082 ft 492 kts 193°
2026-05-03 22:00 37.86839 6.85182 35082 ft 492 kts 194°
2026-05-03 22:01 37.80040 6.84111 35081 ft 492 kts 194°
2026-05-03 22:01 37.73288 6.83050 35072 ft 486 kts 194°
2026-05-03 22:02 37.66616 6.81999 35064 ft 483 kts 194°
2026-05-03 22:02 37.59935 6.80950 35062 ft 485 kts 194°
2026-05-03 22:03 37.53230 6.79901 35068 ft 486 kts 194°
2026-05-03 22:03 37.46524 6.78854 35067 ft 485 kts 193°
2026-05-03 22:04 37.39835 6.77810 35063 ft 484 kts 193°
2026-05-03 22:04 37.33148 6.76768 35063 ft 484 kts 193°
2026-05-03 22:05 37.26461 6.75729 35060 ft 484 kts 193°
2026-05-03 22:05 37.19734 6.74682 35071 ft 489 kts 193°
2026-05-03 22:06 37.12993 6.73641 35081 ft 488 kts 193°
2026-05-03 22:06 37.06254 6.72597 35078 ft 487 kts 193°
2026-05-03 22:07 36.99522 6.71559 35056 ft 488 kts 194°
2026-05-03 22:07 36.92777 6.70519 35073 ft 489 kts 194°
2026-05-03 22:08 36.86021 6.69480 35072 ft 489 kts 194°
2026-05-03 22:08 36.79271 6.68446 35056 ft 488 kts 194°
2026-05-03 22:09 36.72568 6.67415 35086 ft 489 kts 194°
2026-05-03 22:10 36.62436 6.65868 35096 ft 489 kts 194°
2026-05-03 22:10 36.55676 6.64835 35106 ft 490 kts 195°
2026-05-03 22:11 36.48908 6.63804 35139 ft 490 kts 195°
2026-05-03 22:11 36.42136 6.62776 35149 ft 490 kts 195°
2026-05-03 22:12 36.35366 6.61748 35157 ft 490 kts 195°
2026-05-03 22:12 36.28565 6.60912 35186 ft 497 kts 186°
2026-05-03 22:13 36.21593 6.61314 35164 ft 503 kts 184°
2026-05-03 22:13 36.14615 6.61771 35159 ft 501 kts 185°
2026-05-03 22:14 36.07659 6.62201 35155 ft 501 kts 185°
2026-05-03 22:14 36.00678 6.62648 35151 ft 503 kts 185°
2026-05-03 22:15 35.93687 6.63083 35151 ft 502 kts 185°
2026-05-03 22:15 35.86719 6.63526 35153 ft 501 kts 185°
2026-05-03 22:16 35.79759 6.63959 35140 ft 499 kts 185°
2026-05-03 22:16 35.72826 6.64402 35157 ft 501 kts 185°
2026-05-03 22:17 35.65837 6.64826 35168 ft 503 kts 185°
2026-05-03 22:17 35.58858 6.65268 35154 ft 503 kts 185°
2026-05-03 22:18 35.51877 6.65704 35160 ft 501 kts 185°
2026-05-03 22:18 35.44917 6.66134 35165 ft 500 kts 185°
2026-05-03 22:19 35.37970 6.66566 35167 ft 500 kts 185°
2026-05-03 22:19 35.31010 6.66998 35154 ft 501 kts 184°
2026-05-03 22:20 35.24046 6.67431 35179 ft 501 kts 185°
2026-05-03 22:20 35.17097 6.67858 35177 ft 500 kts 185°
2026-05-03 22:21 35.10139 6.68288 35183 ft 501 kts 185°
2026-05-03 22:21 35.03170 6.68716 35183 ft 500 kts 184°
2026-05-03 22:22 34.96235 6.69144 35182 ft 499 kts 184°
2026-05-03 22:22 34.89298 6.69568 35173 ft 499 kts 184°
2026-05-03 22:23 34.82351 6.69995 35161 ft 499 kts 184°
2026-05-03 22:23 34.75421 6.70418 35146 ft 499 kts 184°
2026-05-03 22:24 34.68484 6.70859 35148 ft 499 kts 184°
2026-05-03 22:24 34.61565 6.71287 35137 ft 499 kts 184°
2026-05-03 22:25 34.54610 6.71717 35112 ft 501 kts 183°
2026-05-03 22:25 34.47662 6.72148 35123 ft 500 kts 183°
2026-05-03 22:26 34.40723 6.72578 35123 ft 499 kts 183°
2026-05-03 22:26 34.33838 6.73003 35119 ft 498 kts 183°
2026-05-03 22:27 34.26919 6.73429 35132 ft 498 kts 183°
2026-05-03 22:27 34.19973 6.73854 35132 ft 501 kts 183°
2026-05-03 22:28 34.13009 6.74284 35137 ft 501 kts 183°
2026-05-03 22:28 34.06039 6.74720 35136 ft 503 kts 183°
2026-05-03 22:29 33.99049 6.75135 35122 ft 504 kts 183°
2026-05-03 22:29 33.92038 6.75572 35124 ft 504 kts 183°
2026-05-03 22:30 33.85039 6.75995 35123 ft 503 kts 183°
2026-05-03 22:30 33.78060 6.76423 35123 ft 501 kts 183°
2026-05-03 22:31 33.71100 6.76844 35129 ft 501 kts 183°
2026-05-03 22:31 33.64117 6.77268 35133 ft 503 kts 183°
2026-05-03 22:32 33.57113 6.77695 35137 ft 503 kts 183°
2026-05-03 22:32 33.50126 6.78076 35131 ft 499 kts 187°
2026-05-03 22:33 33.43247 6.78148 35127 ft 498 kts 185°
2026-05-03 22:33 33.36325 6.78236 35125 ft 497 kts 186°
2026-05-03 22:34 33.29403 6.78307 35125 ft 498 kts 185°
2026-05-03 22:34 33.22476 6.78392 35127 ft 498 kts 185°
2026-05-03 22:35 33.15544 6.78468 35125 ft 499 kts 185°
2026-05-03 22:35 33.08599 6.78549 35127 ft 499 kts 185°
2026-05-03 22:36 33.01663 6.78628 35131 ft 498 kts 186°
2026-05-03 22:36 32.94733 6.78706 35128 ft 498 kts 185°
2026-05-03 22:37 32.87801 6.78786 35119 ft 498 kts 185°
2026-05-03 22:37 32.80871 6.78865 35119 ft 498 kts 185°
2026-05-03 22:38 32.73995 6.78942 35122 ft 498 kts 185°
2026-05-03 22:38 32.67072 6.79021 35129 ft 497 kts 185°
2026-05-03 22:39 32.60156 6.79099 35117 ft 497 kts 185°
2026-05-03 22:39 32.53240 6.79177 35128 ft 497 kts 185°
2026-05-03 22:40 32.46323 6.79256 35124 ft 497 kts 185°
2026-05-03 22:40 32.39401 6.79333 35116 ft 497 kts 185°
2026-05-03 22:41 32.32490 6.79411 35114 ft 497 kts 185°
2026-05-03 22:41 32.25578 6.79488 35118 ft 496 kts 185°
2026-05-03 22:42 32.18673 6.79566 35108 ft 496 kts 185°
2026-05-03 22:42 32.11783 6.79643 35110 ft 495 kts 185°
2026-05-03 22:43 32.04896 6.79719 35106 ft 495 kts 185°
2026-05-03 22:43 31.98011 6.79796 35106 ft 496 kts 185°
2026-05-03 22:44 31.91111 6.79875 35112 ft 496 kts 185°
2026-05-03 22:44 31.84264 6.79949 35109 ft 495 kts 185°
2026-05-03 22:45 31.77344 6.80027 35104 ft 494 kts 185°
2026-05-03 22:45 31.70508 6.80102 35106 ft 495 kts 185°
2026-05-03 22:46 31.63618 6.80178 35103 ft 496 kts 185°
2026-05-03 22:46 31.56716 6.80255 35108 ft 496 kts 184°
2026-05-03 22:47 31.49808 6.80329 35108 ft 497 kts 184°
2026-05-03 22:47 31.42898 6.80407 35106 ft 497 kts 184°
2026-05-03 22:48 31.35973 6.80482 35109 ft 497 kts 184°
2026-05-03 22:48 31.30189 6.80548 35093 ft 495 kts 184°
2026-05-03 22:49 31.23342 6.80621 35089 ft 495 kts 184°
2026-05-03 22:49 31.16415 6.80699 35093 ft 495 kts 184°
2026-05-03 22:50 31.09533 6.80773 35089 ft 494 kts 184°
2026-05-03 22:50 31.02698 6.80848 35091 ft 494 kts 184°
2026-05-03 22:51 30.95805 6.80923 35089 ft 496 kts 184°
2026-05-03 22:51 30.88904 6.80998 35088 ft 496 kts 184°
2026-05-03 22:52 30.81997 6.81075 35091 ft 496 kts 184°
2026-05-03 22:52 30.75109 6.81146 35083 ft 495 kts 184°
2026-05-03 22:53 30.68205 6.81223 35082 ft 497 kts 184°
2026-05-03 22:53 30.61292 6.81298 35083 ft 496 kts 184°
2026-05-03 22:54 30.54390 6.81374 35078 ft 496 kts 184°
2026-05-03 22:54 30.47495 6.81447 35077 ft 495 kts 184°
2026-05-03 22:55 30.40598 6.81522 35071 ft 495 kts 184°
2026-05-03 22:55 30.33698 6.81595 35074 ft 497 kts 184°
2026-05-03 22:56 30.26780 6.81670 35072 ft 497 kts 184°
2026-05-03 22:56 30.19912 6.81744 35068 ft 497 kts 184°
2026-05-03 22:57 30.12986 6.81818 35068 ft 499 kts 184°
2026-05-03 22:57 30.06046 6.81894 35063 ft 498 kts 184°
2026-05-03 22:58 29.99116 6.81966 35061 ft 497 kts 184°
2026-05-03 22:58 29.92207 6.82042 35048 ft 496 kts 185°
2026-05-03 22:59 29.85282 6.82114 35065 ft 499 kts 184°
2026-05-03 22:59 29.78339 6.82190 35065 ft 499 kts 184°
2026-05-03 23:00 29.71398 6.82262 35058 ft 499 kts 185°
2026-05-03 23:00 29.64461 6.82337 35041 ft 498 kts 185°
2026-05-03 23:01 29.57535 6.82409 35044 ft 497 kts 185°
2026-05-03 23:01 29.50627 6.82483 35036 ft 496 kts 185°
2026-05-03 23:02 29.43722 6.82555 35038 ft 497 kts 185°
2026-05-03 23:02 29.36800 6.82629 35037 ft 498 kts 185°
2026-05-03 23:03 29.29877 6.82703 35036 ft 497 kts 185°
2026-05-03 23:03 29.22956 6.82774 35036 ft 497 kts 185°
2026-05-03 23:04 29.16039 6.82848 35032 ft 497 kts 185°
2026-05-03 23:04 29.09129 6.82921 35034 ft 497 kts 185°
2026-05-03 23:05 29.02224 6.82993 35031 ft 496 kts 185°
2026-05-03 23:05 28.95321 6.83065 35035 ft 496 kts 184°
2026-05-03 23:06 28.88414 6.83138 35032 ft 497 kts 185°
2026-05-03 23:06 28.81505 6.83210 35024 ft 496 kts 185°
2026-05-03 23:07 28.74654 6.83281 35030 ft 496 kts 185°
2026-05-03 23:07 28.67752 6.83353 35023 ft 496 kts 185°
2026-05-03 23:08 28.60852 6.83425 35020 ft 496 kts 185°
2026-05-03 23:08 28.53957 6.83497 35016 ft 495 kts 185°
2026-05-03 23:09 28.47061 6.83568 35027 ft 496 kts 184°
2026-05-03 23:09 28.40155 6.83640 35026 ft 496 kts 185°
2026-05-03 23:10 28.33244 6.83711 35014 ft 497 kts 184°
2026-05-03 23:10 28.26324 6.83783 35029 ft 498 kts 185°
2026-05-03 23:11 28.19396 6.83854 34994 ft 498 kts 184°
2026-05-03 23:11 28.12487 6.84001 35015 ft 498 kts 178°
2026-05-03 23:12 28.05579 6.84778 35020 ft 500 kts 179°
2026-05-03 23:12 27.98644 6.85541 35014 ft 500 kts 179°
2026-05-03 23:13 27.91719 6.86313 35011 ft 501 kts 179°
2026-05-03 23:13 27.84801 6.87075 35000 ft 498 kts 179°
2026-05-03 23:14 27.77944 6.87835 34998 ft 498 kts 179°
2026-05-03 23:14 27.71049 6.88594 34998 ft 498 kts 179°
2026-05-03 23:15 27.64153 6.89354 34995 ft 498 kts 179°
2026-05-03 23:15 27.57251 6.90114 34998 ft 498 kts 179°
2026-05-03 23:16 27.50340 6.90874 34991 ft 499 kts 179°
2026-05-03 23:16 27.43417 6.91633 34994 ft 500 kts 179°
2026-05-03 23:17 27.36489 6.92393 34993 ft 499 kts 179°
2026-05-03 23:17 27.29588 6.93149 34975 ft 498 kts 179°
2026-05-03 23:18 27.22710 6.93901 34980 ft 496 kts 179°
2026-05-03 23:18 27.15824 6.94652 34976 ft 499 kts 179°
2026-05-03 23:19 27.08913 6.95407 34980 ft 499 kts 179°
2026-05-03 23:19 27.02005 6.96158 34982 ft 498 kts 179°
2026-05-03 23:20 26.95102 6.96911 34969 ft 499 kts 179°
2026-05-03 23:20 26.88178 6.97662 34985 ft 501 kts 179°
2026-05-03 23:21 26.81265 6.98414 34978 ft 498 kts 179°
2026-05-03 23:21 26.74366 6.99160 34976 ft 498 kts 179°
2026-05-03 23:22 26.64015 7.00280 34968 ft 500 kts 179°
2026-05-03 23:22 26.57074 7.01032 34977 ft 501 kts 179°
2026-05-03 23:23 26.50139 7.01780 34972 ft 501 kts 179°
2026-05-03 23:23 26.43253 7.02524 34972 ft 500 kts 179°
2026-05-03 23:24 26.36335 7.03267 34958 ft 500 kts 180°
2026-05-03 23:24 26.29396 7.04013 34969 ft 501 kts 180°
2026-05-03 23:25 26.22446 7.04761 34966 ft 502 kts 180°
2026-05-03 23:25 26.15497 7.05507 34975 ft 502 kts 180°
2026-05-03 23:26 26.08547 7.06251 34962 ft 502 kts 180°
2026-05-03 23:26 26.01584 7.06997 34988 ft 503 kts 180°
2026-05-03 23:27 25.94618 7.07749 34989 ft 504 kts 179°
2026-05-03 23:27 25.87642 7.08518 34991 ft 502 kts 180°
2026-05-03 23:28 25.80700 7.09270 34994 ft 502 kts 180°
2026-05-03 23:28 25.73743 7.10029 34995 ft 503 kts 180°
2026-05-03 23:29 25.66777 7.10786 35000 ft 503 kts 180°
2026-05-03 23:29 25.59804 7.11542 34998 ft 504 kts 180°
2026-05-03 23:30 25.52828 7.12300 35004 ft 503 kts 180°
2026-05-03 23:30 25.45849 7.13055 34987 ft 504 kts 180°
2026-05-03 23:31 25.38856 7.13813 34998 ft 506 kts 180°
2026-05-03 23:31 25.31854 7.14570 35005 ft 505 kts 180°
2026-05-03 23:32 25.24867 7.15324 35003 ft 505 kts 180°
2026-05-03 23:32 25.17878 7.16077 34998 ft 505 kts 180°
2026-05-03 23:33 25.10876 7.16830 34998 ft 507 kts 180°
2026-05-03 23:33 25.03891 7.17583 35000 ft 508 kts 180°
2026-05-03 23:34 24.96878 7.18337 34989 ft 507 kts 180°
2026-05-03 23:34 24.89855 7.19091 34983 ft 506 kts 180°
2026-05-03 23:35 24.82845 7.19847 34972 ft 506 kts 180°
2026-05-03 23:35 24.76993 7.20476 34974 ft 503 kts 180°
2026-05-03 23:36 24.70069 7.21218 34977 ft 504 kts 180°
2026-05-03 23:36 24.63091 7.21968 34974 ft 504 kts 180°
2026-05-03 23:37 24.56099 7.22715 34983 ft 506 kts 180°
2026-05-03 23:37 24.49096 7.23468 34983 ft 505 kts 180°
2026-05-03 23:38 24.42106 7.24212 34995 ft 504 kts 180°
2026-05-03 23:38 24.35123 7.24960 34995 ft 504 kts 180°
2026-05-03 23:39 24.28133 7.25704 34996 ft 505 kts 180°
2026-05-03 23:39 24.21136 7.26450 34989 ft 505 kts 180°
2026-05-03 23:40 24.14149 7.27193 34996 ft 504 kts 180°
2026-05-03 23:40 24.07177 7.27935 35002 ft 503 kts 180°
2026-05-03 23:41 24.00206 7.28674 35006 ft 503 kts 180°
2026-05-03 23:41 23.93237 7.29413 35006 ft 504 kts 180°
2026-05-03 23:42 23.86254 7.30153 34992 ft 505 kts 180°
2026-05-03 23:42 23.79223 7.30897 34991 ft 508 kts 180°
2026-05-03 23:43 23.72194 7.31642 34994 ft 507 kts 180°
2026-05-03 23:43 23.65176 7.32381 34986 ft 507 kts 180°
2026-05-03 23:44 23.58157 7.33123 34986 ft 506 kts 180°
2026-05-03 23:44 23.51131 7.33863 34970 ft 510 kts 180°
2026-05-03 23:45 23.44073 7.34888 34970 ft 511 kts 179°
2026-05-03 23:45 23.37013 7.35885 34962 ft 512 kts 178°
2026-05-03 23:46 23.29954 7.36921 34961 ft 511 kts 179°
2026-05-03 23:46 23.22911 7.37925 34944 ft 510 kts 179°
2026-05-03 23:47 23.15876 7.38945 34943 ft 510 kts 179°
2026-05-03 23:47 23.08890 7.39945 34936 ft 510 kts 179°
2026-05-03 23:48 23.01851 7.40960 34942 ft 510 kts 179°
2026-05-03 23:48 22.94808 7.41970 34935 ft 511 kts 179°
2026-05-03 23:49 22.87765 7.42981 34936 ft 510 kts 179°
2026-05-03 23:49 22.80726 7.43988 34938 ft 511 kts 179°
2026-05-03 23:50 22.73667 7.44998 34935 ft 512 kts 179°
2026-05-03 23:50 22.66617 7.46009 34928 ft 511 kts 179°
2026-05-03 23:51 22.59576 7.47012 34917 ft 510 kts 179°
2026-05-03 23:51 22.52561 7.48015 34910 ft 508 kts 179°
2026-05-03 23:52 22.45547 7.49014 34911 ft 509 kts 179°
2026-05-03 23:52 22.38522 7.50014 34904 ft 509 kts 179°
2026-05-03 23:53 22.31494 7.51013 34902 ft 510 kts 179°
2026-05-03 23:53 22.24465 7.52013 34900 ft 508 kts 179°
2026-05-03 23:54 22.17458 7.53006 34909 ft 508 kts 179°
2026-05-03 23:54 22.10445 7.54000 34897 ft 508 kts 179°
2026-05-03 23:55 22.03431 7.54995 34897 ft 508 kts 179°
2026-05-03 23:55 21.96409 7.55988 34902 ft 509 kts 179°
2026-05-03 23:56 21.89398 7.56981 34893 ft 506 kts 179°
2026-05-03 23:56 21.82429 7.57964 34888 ft 505 kts 179°
2026-05-03 23:57 21.75464 7.58947 34875 ft 505 kts 179°
2026-05-03 23:57 21.68493 7.59929 34881 ft 505 kts 179°
2026-05-03 23:58 21.61518 7.60912 34858 ft 506 kts 179°
2026-05-03 23:58 21.54576 7.61889 34880 ft 502 kts 179°
2026-05-03 23:59 21.47652 7.62861 34881 ft 502 kts 179°
2026-05-03 23:59 21.40728 7.63834 34881 ft 502 kts 179°
2026-05-04 00:00 21.33792 7.64807 34879 ft 503 kts 179°
2026-05-04 00:00 21.26845 7.65781 34883 ft 504 kts 179°
2026-05-04 00:01 21.19889 7.66754 34882 ft 504 kts 179°
2026-05-04 00:01 21.12933 7.67728 34885 ft 505 kts 179°
2026-05-04 00:02 21.05976 7.68700 34886 ft 504 kts 179°
2026-05-04 00:02 20.99079 7.69663 34886 ft 503 kts 179°
2026-05-04 00:03 20.92166 7.70353 34882 ft 497 kts 182°
2026-05-04 00:03 20.85261 7.70928 34881 ft 498 kts 182°
2026-05-04 00:04 20.78353 7.71476 34877 ft 498 kts 182°
2026-05-04 00:04 20.71442 7.72038 34879 ft 498 kts 182°
2026-05-04 00:05 20.64526 7.72594 34874 ft 498 kts 182°
2026-05-04 00:05 20.57608 7.73151 34861 ft 498 kts 182°
2026-05-04 00:06 20.50703 7.73707 34863 ft 497 kts 182°
2026-05-04 00:06 20.43810 7.74260 34862 ft 497 kts 182°
2026-05-04 00:07 20.36916 7.74814 34874 ft 498 kts 182°
2026-05-04 00:07 20.30006 7.75368 34857 ft 497 kts 182°
2026-05-04 00:08 20.23120 7.75920 34873 ft 497 kts 182°
2026-05-04 00:08 20.16214 7.76472 34875 ft 498 kts 182°
2026-05-04 00:09 20.09305 7.77025 34875 ft 498 kts 182°
2026-05-04 00:09 20.02397 7.77578 34875 ft 497 kts 182°
2026-05-04 00:10 19.95505 7.78128 34861 ft 496 kts 182°
2026-05-04 00:10 19.88622 7.78677 34866 ft 497 kts 182°
2026-05-04 00:11 19.81712 7.79228 34874 ft 498 kts 182°
2026-05-04 00:11 19.74852 7.79774 34878 ft 497 kts 182°
2026-05-04 00:12 19.67956 7.80323 34867 ft 497 kts 182°
2026-05-04 00:12 19.61069 7.80871 34847 ft 496 kts 182°
2026-05-04 00:13 19.54190 7.81417 34843 ft 495 kts 182°
2026-05-04 00:13 19.47310 7.81966 34848 ft 496 kts 181°
2026-05-04 00:14 19.40424 7.82543 34864 ft 496 kts 181°
2026-05-04 00:14 19.33533 7.83109 34858 ft 497 kts 181°
2026-05-04 00:15 19.26647 7.83679 34852 ft 496 kts 181°
2026-05-04 00:15 19.19771 7.84246 34849 ft 496 kts 181°
2026-05-04 00:16 19.12868 7.84812 34855 ft 498 kts 181°
2026-05-04 00:16 19.05963 7.85383 34850 ft 497 kts 181°
2026-05-04 00:17 18.99070 7.85949 34851 ft 497 kts 181°
2026-05-04 00:17 18.92171 7.86516 34844 ft 498 kts 181°
2026-05-04 00:18 18.85262 7.87082 34844 ft 498 kts 181°
2026-05-04 00:18 18.78352 7.87650 34840 ft 497 kts 181°
2026-05-04 00:19 18.71463 7.88213 34837 ft 496 kts 181°
2026-05-04 00:19 18.64626 7.88773 34837 ft 497 kts 181°
2026-05-04 00:20 18.57738 7.89338 34838 ft 496 kts 181°
2026-05-04 00:20 18.50843 7.89900 34847 ft 497 kts 181°
2026-05-04 00:21 18.43942 7.90465 34852 ft 497 kts 181°
2026-05-04 00:21 18.37047 7.91028 34855 ft 497 kts 181°
2026-05-04 00:22 18.30141 7.91590 34855 ft 498 kts 181°
2026-05-04 00:22 18.24410 7.92057 34845 ft 496 kts 181°
2026-05-04 00:23 18.17534 7.92618 34849 ft 496 kts 181°
2026-05-04 00:23 18.10650 7.93175 34850 ft 496 kts 181°
2026-05-04 00:24 18.03758 7.93739 34851 ft 496 kts 181°
2026-05-04 00:24 17.96878 7.94296 34849 ft 496 kts 181°
2026-05-04 00:25 17.90002 7.94855 34852 ft 495 kts 180°
2026-05-04 00:25 17.83130 7.95412 34849 ft 496 kts 181°
2026-05-04 00:26 17.76243 7.95971 34846 ft 496 kts 181°
2026-05-04 00:26 17.69366 7.96528 34842 ft 496 kts 181°
2026-05-04 00:27 17.62489 7.97083 34847 ft 496 kts 180°
2026-05-04 00:27 17.55594 7.97641 34840 ft 498 kts 180°
2026-05-04 00:28 17.48675 7.98202 34847 ft 499 kts 180°
2026-05-04 00:28 17.41749 7.98759 34849 ft 499 kts 180°
2026-05-04 00:29 17.34820 7.99319 34850 ft 499 kts 180°
2026-05-04 00:29 17.27903 7.99877 34847 ft 498 kts 180°
2026-05-04 00:30 17.20990 8.00434 34841 ft 498 kts 181°
2026-05-04 00:30 17.14093 8.00988 34841 ft 497 kts 181°
2026-05-04 00:31 17.07197 8.01544 34840 ft 497 kts 181°
2026-05-04 00:31 17.00289 8.02098 34839 ft 498 kts 181°
2026-05-04 00:32 16.93372 8.02691 34838 ft 500 kts 179°
2026-05-04 00:32 16.86501 8.03401 34831 ft 499 kts 179°
2026-05-04 00:33 16.76117 8.04383 34838 ft 499 kts 179°
2026-05-04 00:34 16.69209 8.05050 34829 ft 497 kts 179°
2026-05-04 00:34 16.62307 8.05712 34832 ft 498 kts 179°
2026-05-04 00:35 16.55410 8.06384 34825 ft 498 kts 180°
2026-05-04 00:35 16.48528 8.07032 34828 ft 496 kts 179°
2026-05-04 00:36 16.41648 8.07712 34828 ft 497 kts 179°
2026-05-04 00:36 16.34755 8.08353 34833 ft 498 kts 179°
2026-05-04 00:37 16.27849 8.09028 34839 ft 497 kts 179°
2026-05-04 00:37 16.20960 8.09682 34840 ft 496 kts 179°
2026-05-04 00:38 16.14092 8.10339 34826 ft 494 kts 179°
2026-05-04 00:38 16.07247 8.10995 34821 ft 495 kts 179°
2026-05-04 00:39 16.00382 8.11652 34828 ft 496 kts 179°
2026-05-04 00:39 15.93511 8.12307 34828 ft 496 kts 179°
2026-05-04 00:40 15.86628 8.12965 34833 ft 497 kts 179°
2026-05-04 00:40 15.79741 8.13622 34821 ft 498 kts 179°
2026-05-04 00:41 15.72841 8.14280 34823 ft 498 kts 179°
2026-05-04 00:41 15.65942 8.14938 34825 ft 498 kts 179°
2026-05-04 00:42 15.59037 8.15594 34825 ft 498 kts 179°
2026-05-04 00:42 15.52135 8.16251 34824 ft 498 kts 179°
2026-05-04 00:43 15.45230 8.16907 34831 ft 499 kts 179°
2026-05-04 00:43 15.38309 8.17565 34829 ft 500 kts 179°
2026-05-04 00:44 15.31386 8.18222 34824 ft 499 kts 179°
2026-05-04 00:44 15.24465 8.18880 34824 ft 499 kts 179°
2026-05-04 00:45 15.17551 8.19535 34822 ft 499 kts 179°
2026-05-04 00:45 15.10643 8.20190 34820 ft 499 kts 179°
2026-05-04 00:46 15.03765 8.20841 34823 ft 501 kts 179°
2026-05-04 00:46 14.96827 8.21503 34824 ft 501 kts 179°
2026-05-04 00:47 14.89889 8.22161 34821 ft 500 kts 179°
2026-05-04 00:47 14.82952 8.22820 34821 ft 500 kts 179°
2026-05-04 00:48 14.76025 8.23477 34816 ft 500 kts 179°
2026-05-04 00:48 14.69092 8.24135 34815 ft 500 kts 179°
2026-05-04 00:49 14.62152 8.24792 34816 ft 501 kts 179°
2026-05-04 00:49 14.55206 8.25450 34818 ft 501 kts 179°
2026-05-04 00:50 14.48259 8.26107 34819 ft 502 kts 179°
2026-05-04 00:50 14.41303 8.26764 34820 ft 502 kts 179°
2026-05-04 00:51 14.34344 8.27424 34826 ft 502 kts 179°
2026-05-04 00:51 14.27404 8.28078 34822 ft 500 kts 179°
2026-05-04 00:52 14.20492 8.28731 34818 ft 499 kts 179°
2026-05-04 00:52 14.13569 8.29384 34817 ft 499 kts 179°
2026-05-04 00:53 14.06641 8.30038 34815 ft 500 kts 179°
2026-05-04 00:53 13.99719 8.30690 34816 ft 499 kts 179°
2026-05-04 00:54 13.92799 8.31341 34819 ft 499 kts 179°
2026-05-04 00:54 13.85878 8.31993 34818 ft 499 kts 179°
2026-05-04 00:55 13.79002 8.32639 34817 ft 500 kts 179°
2026-05-04 00:55 13.72072 8.33291 34822 ft 500 kts 179°
2026-05-04 00:56 13.65148 8.33939 34825 ft 498 kts 178°
2026-05-04 00:56 13.58247 8.34584 34838 ft 498 kts 178°
2026-05-04 00:57 13.51341 8.35232 34835 ft 498 kts 178°
2026-05-04 00:57 13.44442 8.35877 34839 ft 498 kts 178°
2026-05-04 00:58 13.37534 8.36522 34841 ft 499 kts 178°
2026-05-04 00:58 13.30595 8.37171 34855 ft 504 kts 178°
2026-05-04 00:59 13.23599 8.37825 34851 ft 504 kts 178°
2026-05-04 00:59 13.16624 8.38476 34852 ft 503 kts 178°
2026-05-04 01:00 13.09651 8.39125 34851 ft 503 kts 178°
2026-05-04 01:00 13.02684 8.39803 34858 ft 503 kts 177°
2026-05-04 01:01 12.95719 8.40508 34852 ft 502 kts 178°
2026-05-04 01:01 12.88774 8.41188 34850 ft 501 kts 178°
2026-05-04 01:02 12.81845 8.41882 34847 ft 500 kts 178°
2026-05-04 01:02 12.74916 8.42564 34850 ft 501 kts 178°
2026-05-04 01:03 12.67967 8.43255 34852 ft 502 kts 178°
2026-05-04 01:03 12.61007 8.43941 34847 ft 502 kts 178°
2026-05-04 01:04 12.54068 8.44629 34854 ft 501 kts 178°
2026-05-04 01:04 12.47125 8.45313 34856 ft 501 kts 178°
2026-05-04 01:05 12.40188 8.45998 34855 ft 501 kts 178°
2026-05-04 01:05 12.33255 8.46682 34864 ft 501 kts 178°
2026-05-04 01:06 12.26364 8.47362 34862 ft 500 kts 177°
2026-05-04 01:06 12.19435 8.48044 34867 ft 500 kts 177°
2026-05-04 01:07 12.12509 8.48728 34867 ft 500 kts 177°
2026-05-04 01:07 12.05589 8.49408 34866 ft 499 kts 177°
2026-05-04 01:08 11.98709 8.50480 34879 ft 502 kts 173°
2026-05-04 01:08 11.91816 8.51713 34882 ft 503 kts 173°
2026-05-04 01:09 11.84915 8.52948 34885 ft 504 kts 173°
2026-05-04 01:09 11.79174 8.53978 34884 ft 504 kts 173°
2026-05-04 01:10 11.72254 8.55213 34890 ft 505 kts 173°
2026-05-04 01:10 11.65346 8.56449 34890 ft 504 kts 173°
2026-05-04 01:11 11.58447 8.57680 34896 ft 503 kts 173°
2026-05-04 01:11 11.51554 8.58911 34891 ft 502 kts 173°
2026-05-04 01:12 11.44691 8.60137 34895 ft 501 kts 173°
2026-05-04 01:12 11.37825 8.61361 34892 ft 500 kts 173°
2026-05-04 01:13 11.30954 8.62586 34906 ft 502 kts 173°
2026-05-04 01:13 11.24061 8.63814 34910 ft 503 kts 173°
2026-05-04 01:14 11.17171 8.65042 34922 ft 503 kts 173°
2026-05-04 01:14 11.10277 8.66269 34918 ft 502 kts 173°
2026-05-04 01:15 11.03407 8.67491 34915 ft 500 kts 173°
2026-05-04 01:15 10.96556 8.68711 34912 ft 500 kts 173°
2026-05-04 01:16 10.89694 8.69930 34911 ft 501 kts 173°
2026-05-04 01:16 10.82787 8.70764 34925 ft 500 kts 176°
2026-05-04 01:17 10.75863 8.71572 34932 ft 501 kts 176°
2026-05-04 01:17 10.68933 8.72353 34938 ft 500 kts 176°
2026-05-04 01:18 10.62020 8.73149 34936 ft 500 kts 176°
2026-05-04 01:18 10.55108 8.73934 34944 ft 500 kts 176°
2026-05-04 01:19 10.48244 8.74719 34944 ft 499 kts 176°
2026-05-04 01:19 10.41341 8.75505 34949 ft 499 kts 176°
2026-05-04 01:20 10.34449 8.76291 34947 ft 499 kts 176°
2026-05-04 01:20 10.27533 8.77079 34955 ft 500 kts 176°
2026-05-04 01:21 10.20613 8.77867 34958 ft 501 kts 176°
2026-05-04 01:21 10.13688 8.78655 34972 ft 501 kts 176°
2026-05-04 01:22 10.06749 8.79444 34972 ft 501 kts 175°
2026-05-04 01:22 9.99829 8.80230 34977 ft 500 kts 175°
2026-05-04 01:23 9.92944 8.81014 34976 ft 500 kts 175°
2026-05-04 01:23 9.86026 8.81800 34990 ft 500 kts 175°
2026-05-04 01:24 9.79103 8.82586 34989 ft 501 kts 175°
2026-05-04 01:24 9.72167 8.83374 34987 ft 502 kts 175°
2026-05-04 01:25 9.65235 8.84160 34994 ft 500 kts 175°
2026-05-04 01:25 9.58346 8.85122 34992 ft 500 kts 174°
2026-05-04 01:26 9.51450 8.86047 34989 ft 500 kts 173°
2026-05-04 01:26 9.44567 8.87036 34988 ft 500 kts 174°
2026-05-04 01:27 9.37678 8.87984 34982 ft 499 kts 174°
2026-05-04 01:27 9.30796 8.88955 34978 ft 500 kts 173°
2026-05-04 01:28 9.23899 8.89914 34961 ft 501 kts 173°
2026-05-04 01:28 9.16993 8.90881 34963 ft 501 kts 173°
2026-05-04 01:29 9.10084 8.91845 34945 ft 502 kts 173°
2026-05-04 01:29 9.03165 8.92811 34948 ft 502 kts 173°
2026-05-04 01:30 8.96242 8.93777 34928 ft 502 kts 173°
2026-05-04 01:30 8.89328 8.94741 34923 ft 501 kts 173°
2026-05-04 01:31 8.82430 8.95704 34904 ft 500 kts 173°
2026-05-04 01:31 8.75546 8.96662 34902 ft 500 kts 173°
2026-05-04 01:32 8.68653 8.97623 34900 ft 500 kts 173°
2026-05-04 01:32 8.61802 8.98577 34898 ft 500 kts 173°
2026-05-04 01:33 8.54918 8.99534 34897 ft 499 kts 173°
2026-05-04 01:33 8.48048 9.00492 34896 ft 498 kts 173°
2026-05-04 01:34 8.41185 9.01445 34898 ft 498 kts 173°
2026-05-04 01:34 8.34308 9.02268 34901 ft 498 kts 174°
2026-05-04 01:35 8.27414 9.03111 34907 ft 500 kts 174°
2026-05-04 01:35 8.20519 9.03942 34904 ft 497 kts 174°
2026-05-04 01:36 8.13676 9.04760 34900 ft 495 kts 174°
2026-05-04 01:36 8.06834 9.05599 34899 ft 495 kts 173°
2026-05-04 01:37 8.00007 9.06571 34903 ft 496 kts 173°
2026-05-04 01:37 7.93166 9.07485 34905 ft 496 kts 173°
2026-05-04 01:38 7.86339 9.08416 34911 ft 497 kts 172°
2026-05-04 01:38 7.79493 9.09344 34900 ft 494 kts 173°
2026-05-04 01:39 7.72653 9.10281 34904 ft 499 kts 173°
2026-05-04 01:39 7.65815 9.11217 34905 ft 500 kts 172°
2026-05-04 01:40 7.58957 9.12137 34906 ft 495 kts 173°
2026-05-04 01:40 7.52128 9.13074 34904 ft 496 kts 173°
2026-05-04 01:41 7.45295 9.13998 34903 ft 493 kts 173°
2026-05-04 01:41 7.38501 9.14922 34907 ft 493 kts 173°
2026-05-04 01:42 7.31674 9.15853 34911 ft 496 kts 173°
2026-05-04 01:42 7.24840 9.16774 34912 ft 495 kts 173°
2026-05-04 01:43 7.18020 9.17704 34914 ft 495 kts 173°
2026-05-04 01:43 7.11194 9.18627 34916 ft 494 kts 173°
2026-05-04 01:44 7.04365 9.19234 34916 ft 494 kts 176°
2026-05-04 01:44 6.97486 9.19699 34918 ft 495 kts 177°
2026-05-04 01:45 6.90623 9.20147 34918 ft 494 kts 177°
2026-05-04 01:45 6.80320 9.20829 34921 ft 494 kts 177°
2026-05-04 01:46 6.73459 9.21280 34931 ft 494 kts 176°
2026-05-04 01:46 6.66593 9.21734 34932 ft 495 kts 176°
2026-05-04 01:47 6.59726 9.22186 34938 ft 494 kts 176°
2026-05-04 01:47 6.52853 9.22639 34937 ft 495 kts 176°
2026-05-04 01:48 6.45988 9.23091 34934 ft 494 kts 176°
2026-05-04 01:48 6.39121 9.23544 34942 ft 495 kts 176°
2026-05-04 01:49 6.32246 9.23997 34947 ft 495 kts 176°
2026-05-04 01:49 6.25377 9.24448 34950 ft 495 kts 176°
2026-05-04 01:50 6.18496 9.24902 34950 ft 496 kts 176°
2026-05-04 01:50 6.11643 9.25640 34941 ft 495 kts 174°
2026-05-04 01:51 6.04837 9.26403 34943 ft 496 kts 173°
2026-05-04 01:51 5.97990 9.27216 34938 ft 495 kts 173°
2026-05-04 01:52 5.91143 9.28000 34938 ft 495 kts 173°
2026-05-04 01:52 5.84303 9.28801 34934 ft 495 kts 173°
2026-05-04 01:53 5.77470 9.29593 34935 ft 494 kts 173°
2026-05-04 01:53 5.70651 9.30400 34935 ft 493 kts 170°
2026-05-04 01:54 5.63929 9.31838 34938 ft 495 kts 167°
2026-05-04 01:54 5.57201 9.33303 34941 ft 495 kts 168°
2026-05-04 01:55 5.50461 9.34765 34947 ft 496 kts 167°
2026-05-04 01:55 5.43717 9.36234 34950 ft 496 kts 167°
2026-05-04 01:56 5.36983 9.37696 34958 ft 495 kts 167°
2026-05-04 01:56 5.30254 9.39158 34963 ft 495 kts 167°
2026-05-04 01:57 5.24660 9.40373 34975 ft 495 kts 167°
2026-05-04 01:57 5.17962 9.41828 34970 ft 491 kts 167°
2026-05-04 01:58 5.11294 9.43277 34970 ft 491 kts 167°
2026-05-04 01:58 5.04602 9.44728 34978 ft 491 kts 167°
2026-05-04 01:59 4.97917 9.46180 34978 ft 491 kts 167°
2026-05-04 01:59 4.91239 9.47628 34975 ft 491 kts 167°
2026-05-04 02:00 4.84566 9.49076 34972 ft 491 kts 167°
2026-05-04 02:00 4.77885 9.50526 34962 ft 491 kts 167°
2026-05-04 02:01 4.71204 9.51974 34965 ft 492 kts 167°
2026-05-04 02:01 4.64511 9.53425 34960 ft 492 kts 167°
2026-05-04 02:02 4.57822 9.54876 34954 ft 492 kts 167°
2026-05-04 02:02 4.51128 9.56326 34953 ft 492 kts 167°
2026-05-04 02:03 4.44662 9.58339 34947 ft 491 kts 160°
2026-05-04 02:03 4.38164 9.60621 34944 ft 492 kts 160°
2026-05-04 02:04 4.31765 9.62902 34946 ft 492 kts 160°
2026-05-04 02:04 4.25260 9.65196 34947 ft 492 kts 160°
2026-05-04 02:05 4.18847 9.67469 34949 ft 493 kts 160°
2026-05-04 02:05 4.12371 9.69758 34947 ft 494 kts 160°
2026-05-04 02:06 4.05923 9.72039 34945 ft 490 kts 160°
2026-05-04 02:06 3.99492 9.74293 34943 ft 489 kts 163°
2026-05-04 02:07 3.92885 9.75933 34947 ft 491 kts 165°
2026-05-04 02:07 3.86226 9.77566 34948 ft 491 kts 166°
2026-05-04 02:08 3.79584 9.79176 34941 ft 492 kts 165°
2026-05-04 02:08 3.72927 9.80801 34931 ft 493 kts 165°
2026-05-04 02:09 3.66242 9.82431 34927 ft 495 kts 165°
2026-05-04 02:09 3.59572 9.84058 34932 ft 492 kts 166°
2026-05-04 02:10 3.52927 9.85675 34935 ft 491 kts 165°
2026-05-04 02:10 3.46284 9.87296 34933 ft 491 kts 165°
2026-05-04 02:11 3.39641 9.88914 34930 ft 492 kts 165°
2026-05-04 02:11 3.32982 9.90537 34931 ft 494 kts 165°
2026-05-04 02:12 3.26318 9.92170 34937 ft 492 kts 166°
2026-05-04 02:12 3.19642 9.93767 34934 ft 493 kts 165°
2026-05-04 02:13 3.13002 9.95409 34942 ft 492 kts 166°
2026-05-04 02:13 3.06350 9.97018 34933 ft 491 kts 166°
2026-05-04 02:14 2.99690 9.98644 34944 ft 494 kts 165°
2026-05-04 02:14 2.93002 10.00276 34943 ft 494 kts 166°
2026-05-04 02:15 2.86362 10.01879 34938 ft 494 kts 165°
2026-05-04 02:15 2.79675 10.03515 34940 ft 495 kts 165°
2026-05-04 02:16 2.72975 10.05145 34942 ft 495 kts 165°
2026-05-04 02:16 2.66317 10.06760 34947 ft 493 kts 166°
2026-05-04 02:17 2.59637 10.08397 34948 ft 496 kts 166°
2026-05-04 02:17 2.52958 10.10025 34939 ft 491 kts 166°
2026-05-04 02:18 2.46311 10.11622 34945 ft 489 kts 165°
2026-05-04 02:18 2.39640 10.13264 34959 ft 493 kts 165°
2026-05-04 02:19 2.32944 10.14878 34963 ft 495 kts 165°
2026-05-04 02:19 2.26275 10.16507 34961 ft 493 kts 165°
2026-05-04 02:20 2.19673 10.18109 34960 ft 490 kts 165°
2026-05-04 02:20 2.13004 10.19731 34958 ft 490 kts 165°
2026-05-04 02:21 2.06418 10.21332 34962 ft 491 kts 165°
2026-05-04 02:21 1.99776 10.22946 34962 ft 491 kts 165°
2026-05-04 02:22 1.93136 10.24561 34967 ft 491 kts 165°
2026-05-04 02:22 1.86502 10.26171 34967 ft 491 kts 165°
2026-05-04 02:23 1.79844 10.27793 34974 ft 494 kts 165°
2026-05-04 02:23 1.73221 10.29381 34974 ft 487 kts 165°
2026-05-04 02:24 1.66596 10.31015 34980 ft 492 kts 167°
2026-05-04 02:24 1.59971 10.32609 34987 ft 489 kts 165°
2026-05-04 02:25 1.53342 10.34232 34981 ft 492 kts 166°
2026-05-04 02:25 1.46693 10.35839 34993 ft 492 kts 164°
2026-05-04 02:26 1.40014 10.37460 34991 ft 491 kts 165°
2026-05-04 02:26 1.33371 10.39074 34988 ft 492 kts 165°
2026-05-04 02:27 1.26744 10.40681 34988 ft 496 kts 165°
2026-05-04 02:27 1.20090 10.42306 34985 ft 489 kts 165°
2026-05-04 02:28 1.13455 10.43905 34995 ft 492 kts 165°
2026-05-04 02:28 1.06792 10.45533 34993 ft 496 kts 165°
2026-05-04 02:29 1.00073 10.47147 34992 ft 496 kts 165°
2026-05-04 02:29 0.93385 10.48778 34990 ft 493 kts 165°
2026-05-04 02:30 0.86705 10.50399 34992 ft 494 kts 165°
2026-05-04 02:30 0.80023 10.52029 34990 ft 491 kts 165°
2026-05-04 02:31 0.73350 10.53652 34988 ft 496 kts 166°
2026-05-04 02:31 0.66624 10.55267 34991 ft 497 kts 165°
2026-05-04 02:32 0.59902 10.56918 34984 ft 498 kts 165°
2026-05-04 02:32 0.53175 10.58539 34989 ft 497 kts 165°
2026-05-04 02:33 0.46473 10.60188 34987 ft 496 kts 165°
2026-05-04 02:33 0.39742 10.61808 34982 ft 496 kts 165°
2026-05-04 02:34 0.33032 10.63446 34980 ft 497 kts 165°
2026-05-04 02:34 0.26366 10.65064 34966 ft 496 kts 165°
2026-05-04 02:35 0.19668 10.66686 34970 ft 494 kts 165°
2026-05-04 02:35 0.12944 10.68331 34969 ft 500 kts 165°
2026-05-04 02:36 0.06181 10.69951 34963 ft 497 kts 165°
2026-05-04 02:36 -0.00519 10.71602 34956 ft 496 kts 165°
2026-05-04 02:37 -0.07240 10.73225 34966 ft 497 kts 165°
2026-05-04 02:37 -0.13960 10.74862 34970 ft 497 kts 165°
2026-05-04 02:38 -0.20676 10.76489 34964 ft 494 kts 165°
2026-05-04 02:38 -0.27395 10.78115 34970 ft 498 kts 164°
2026-05-04 02:39 -0.34118 10.79754 34972 ft 497 kts 165°
2026-05-04 02:39 -0.40841 10.81381 34970 ft 497 kts 165°
2026-05-04 02:40 -0.47568 10.83016 34973 ft 497 kts 165°
2026-05-04 02:40 -0.54287 10.84646 34971 ft 497 kts 165°
2026-05-04 02:41 -0.60973 10.86270 34973 ft 498 kts 165°
2026-05-04 02:41 -0.67695 10.87901 34983 ft 497 kts 165°
2026-05-04 02:42 -0.74403 10.89532 34983 ft 494 kts 164°
2026-05-04 02:42 -0.81115 10.91157 34976 ft 499 kts 163°
2026-05-04 02:43 -0.87849 10.92788 34979 ft 498 kts 165°
2026-05-04 02:43 -0.94573 10.94424 34974 ft 497 kts 165°
2026-05-04 02:44 -1.01295 10.96052 34971 ft 496 kts 164°
2026-05-04 02:44 -1.08004 10.97679 34970 ft 496 kts 164°
2026-05-04 02:45 -1.13591 10.99037 34977 ft 497 kts 164°
2026-05-04 02:45 -1.20349 11.00676 34978 ft 501 kts 165°
2026-05-04 02:46 -1.27105 11.02315 34987 ft 499 kts 164°
2026-05-04 02:46 -1.33851 11.03953 34985 ft 499 kts 164°
2026-05-04 02:47 -1.40595 11.05589 34982 ft 499 kts 164°
2026-05-04 02:47 -1.47331 11.07226 34987 ft 498 kts 164°
2026-05-04 02:48 -1.54074 11.08854 34981 ft 498 kts 164°
2026-05-04 02:48 -1.60858 11.10507 34986 ft 502 kts 164°
2026-05-04 02:49 -1.67635 11.12153 34978 ft 501 kts 165°
2026-05-04 02:49 -1.74417 11.13796 34980 ft 501 kts 164°
2026-05-04 02:50 -1.81189 11.15438 34964 ft 499 kts 164°
2026-05-04 02:50 -1.87951 11.17093 34971 ft 499 kts 164°
2026-05-04 02:51 -1.94715 11.18716 34970 ft 500 kts 164°
2026-05-04 02:51 -2.01475 11.20374 34962 ft 500 kts 164°
2026-05-04 02:52 -2.08247 11.22007 34965 ft 500 kts 164°
2026-05-04 02:52 -2.15011 11.23657 34962 ft 502 kts 164°
2026-05-04 02:53 -2.18412 11.24487 34962 ft 503 kts 165°